Home > Time Zones > World Clock > Weather > China > Hefei > Past weeks

Flag for China Weather past 2 weeks in Hefei, Anhui, China

Now
68 °F

Clear.


Feels Like: 68 °F
Forecast: 53 / 76 °F
Wind: 1 mph from Southwest

Location: Hefei Airport

Current Time: Mar 28, 2015 at 7:37:44 PM

Latest Report: Mar 28, 2015 at 7:00 PM


Visibility: 10 mi

Pressure: 29.98 "Hg

Humidity: 56%

Dew point: 52 °F

Location of HefeiLocation

Historic Weather in Hefei — Graph

°F

Hefei temperature yesterday

Maximum temperature yesterday: 64 °F (at 2:00 PM)
Minimum temperature yesterday: 50 °F (at 2:00 AM)
Average temperature yesterday: 56 °F

Past Weeks' High & Low Weather Summary

 TemperatureHumidityPressure
High72 °F (Mar 28, 3:00 PM)100% (Mar 17, 4:00 PM)30.48 "Hg (Mar 17, 4:00 PM)
Low43 °F (Mar 24, 5:00 AM)27% (Mar 24, 3:00 PM)29.74 "Hg (Mar 17, 4:00 PM)
Average54 °F75%30.15 "Hg
* Reported Mar 13 6:00 PM — Mar 28 6:00 PM, Hefei, Weather by CustomWeather, © 2015

Note: Actual official high and low records may vary slightly from our data, if they occured in-between our weather recording intervals... More about our weather records

Advertising

Hefei weather history for previous 24 hours

 ConditionsComfort  
Time TempWeatherWind HumidityBarometerVisibility
6:00 PM
Sat, Mar 28
70 °FSunny.3 mph53%29.98 "Hg10 mi
5:00 PM72 °FSunny.6 mph50%29.98 "Hg10 mi
4:00 PM72 °FPassing clouds.6 mph50%29.95 "HgN/A
3:00 PM72 °FPassing clouds.6 mph47%29.98 "HgN/A
2:00 PM70 °FPassing clouds.6 mph50%30.01 "HgN/A
1:00 PM68 °FPassing clouds.6 mph53%30.04 "HgN/A
12:00 PM68 °FSunny.6 mph53%30.04 "Hg10 mi
11:00 AM66 °FPassing clouds.6 mph52%30.07 "HgN/A
10:00 AM64 °FHaze.6 mph60%30.09 "Hg3 mi
9:00 AM61 °FHaze.6 mph68%30.09 "Hg2 mi
8:00 AM55 °FFog.6 mph82%30.09 "Hg2 mi
7:00 AM52 °FFog.8 mph88%30.09 "Hg1 mi
6:00 AM50 °FFog.8 mph88%30.07 "Hg1 mi
5:00 AM50 °FFog.10 mph88%30.07 "Hg1 mi
4:00 AM50 °FFog.8 mph88%30.09 "Hg1 mi
3:00 AM54 °FFog.8 mph82%30.09 "Hg1 mi
2:00 AM52 °FFog.8 mph88%30.12 "Hg2 mi
1:00 AM52 °FFog.6 mph88%30.15 "Hg2 mi
12:00 AM54 °FFog.6 mph82%30.18 "Hg2 mi
11:00 PM
Fri, Mar 27
52 °FFog.3 mph82%30.18 "Hg3 mi
10:00 PM54 °FHaze.6 mph72%30.21 "Hg3 mi
9:00 PM55 °FClear.6 mph63%30.21 "Hg4 mi
8:00 PM55 °FClear.6 mph67%30.21 "Hg4 mi
7:00 PM61 °FClear.8 mph59%30.18 "Hg4 mi
Weather by CustomWeather, © 2015

See weather overviewHow to use our weather pages